STARLINK-5491, 55332

Orbit data source: Space-Track

STARLINK-5491, 55332 is a payload satellite owned by SpaceX/Seattle (US) in LEO that was launched on Thu, 26 Jan 2023 UTC via an FALCON 9 launch vehicle from the Air Force Eastern Test Range (AFETR). Payload-class satellites include a variety of spacecraft equipped with specific instruments for various scientific and technological missions. These include communications satellites like Starlink; space stations such as the ISS; scientific satellites like the Hubble; Earth observation satellites from companies like Planet Labs, Umbra, and HawkEye 360; GPS; miniature CubeSats for education and research; and military/defense satellites.

Loading next visibility...
Identifier
55332, 2023-013B
Orbit
LEO
Country
Flag of USUS
Related business
Manufacturer
SpaceX/Seattle
Mission
Operational Commercial Communications
Bus & Motor
STARLINK, Unknown motor
Mass
305 kg wet, ~290 kg dry
Launch date (UTC)
2023-01-26 (3 years ago)
Launch vehicle
FALCON 9
Launch site
Air Force Eastern Test Range (AFETR)
Object type
Payload
Rocket body
Debris
Shape & HBR
Box + 1 Pan, 10.1 m
Radar Cross Section
13.562 m², Large (>1 m²)

Expand to show TLE details & history
Last TLE update: 1 day ago

TLE from 1 day ago
0 STARLINK-5491
1 55332U 23013B   25348.17359686  .00001602  00000-0  13366-3 0  9995
2 55332  43.0051  32.1525 0001236 271.9676  88.1025 15.02530369158991
Epoch: 2025-12-14T04:09Z
TLE epoch observation values (Epoch: 2025-12-14T04:09:58.768Z)
Latitude
-0.00001°
Longitude
-113.43269°
Altitude
558.847 km
Speed
7.584 km/s
True Right ascension
02h 08m 36s
True Declination
0° 00' 00"
Sunlit
Object was in full shadow at epoch
Visualization orbit readout
Latitude
Unknown
Longitude
Unknown
Altitude
Unknown
Speed
Unknown
Apparent Right ascension
Unknown
Apparent Declination
Unknown
Sunlit
N/A
Visualization observer readout
Local Sidereal Time
13:18:59
Azimuth
Unknown
Elevation
Unknown
Doppler factor
Unknown
Orbital elements
Apogee altitude
561.878 km
Perigee altitude
560.162 km
Semi-major axis
6,939.157 km
Eccentricity
0.00012
Inclination
43.0051°
RAAN
32.1525°
Arg. of periapsis
271.9676°
True anomaly
88.11666°
Mean anomaly
88.1025°
Eccentric anomaly
88.10958°
Mean motion
3.75477 °/min
Orbital period
95.88 mins
BSTAR
0.00013366
Loading maneuver chart data...
Computing Atmospheric mass density...
Loading historical data...
Loading historical data...
Loading historical data...
Loading historical data...
Loading historical data...
Loading historical data...
Loading historical data...

Documentation

Showing up to 5 results
|